Florennes, Belgium

5:35 PM CET on February 10, 2016 (GMT +0100)
Florennes Air Base

Weather History for EBFS - May, 2013

Change the Weather History Date:

Sunday, May 26, 2013

  Actual Average Record
Temperature  
Mean Temperature 47 °F -  
Max Temperature 54 °F 61 °F 76 °F (2012)
Min Temperature 40 °F 51 °F 40 °F (2013)
Degree Days  
Heating Degree Days 18    
Moisture  
Dew Point 41 °F    
Average Humidity 83    
Maximum Humidity 100    
Minimum Humidity 54    
Precipitation  
Precipitation 0.02 in - - ()
Sea Level Pressure  
Sea Level Pressure 29.98 in    
Wind  
Wind Speed 10 mph ()    
Max Wind Speed 16 mph    
Max Gust Speed -    
Visibility 5.7 miles    
Events Rain    
Averages and records for this station are not official NWS values.
T = Trace of Precipitation, MM = Missing Value Source: Averaged Metar Reports

Daily Weather History Graph

Daily Weather History Graph

Search for Another Location

Airport or City:

Trip Planner

Search our weather history database for the weather conditions in past years. The results will help you decide how hot, cold, wet, or windy it might be!

Date:

Astronomy

May. 26, 2013 Rise Set
Actual Time 5:41 AM CEST 9:36 PM CEST
Civil Twilight 4:59 AM CEST 10:18 PM CEST
Nautical Twilight 4:00 AM CEST 11:17 PM CEST
Astronomical Twilight 2:22 AM CEST 1:00 AM CEST
Moon 11:06 PM CEST (5/26) 6:55 AM CEST (5/26)
Length of Visible Light 17h 19m
Length of Day
15h 55m
Full, 98% of the Moon is Illuminated
May 26
Full
May 31
Last Quarter
Jun 8
New
Jun 16
First Quarter
Jun 23
Full

Hourly Weather History & Observations

Time (CEST) Temp. Windchill Dew Point Humidity Pressure Visibility Wind Dir Wind Speed Gust Speed Precip Events Conditions
12:25 AM 42.8 °F 37.5 °F 37.4 °F 81% 30.04 in 6.2 mi WNW 9.2 mph - N/A   Mostly Cloudy
12:55 AM 42.8 °F 38.0 °F 37.4 °F 81% 30.04 in 6.2 mi WNW 8.1 mph - N/A   Mostly Cloudy
1:25 AM 41.0 °F 34.7 °F 37.4 °F 87% 30.04 in 6.2 mi WNW 10.4 mph - N/A   Mostly Cloudy
1:29 AM 41.0 °F 34.7 °F 39.2 °F 93% 30.04 in 6.2 mi WNW 10.4 mph - N/A   Mostly Cloudy
1:55 AM 41.0 °F 35.8 °F 39.2 °F 93% 30.04 in 6.2 mi WNW 8.1 mph - N/A Rain Light Rain
2:00 AM 41 °F - 40 °F 92% 30.06 in 16 mi WNW 8.9 mph - - Rain Light Rain
2:23 AM 41.0 °F 34.7 °F 41.0 °F 100% 30.01 in - WNW 10.4 mph - N/A Rain Rain
2:25 AM 41.0 °F 34.7 °F 41.0 °F 100% 30.01 in - WNW 10.4 mph - N/A Rain Rain
2:55 AM 41.0 °F 34.7 °F 39.2 °F 93% 30.04 in 3.1 mi WNW 10.4 mph - N/A Rain Light Rain
3:25 AM 41.0 °F 35.2 °F 41.0 °F 100% 29.98 in 3.1 mi WNW 9.2 mph - N/A Rain Rain
3:55 AM 41.0 °F 34.7 °F 41.0 °F 100% 29.98 in 3.1 mi WNW 10.4 mph - N/A Rain Light Rain
4:25 AM 41.0 °F 35.2 °F 41.0 °F 100% 29.98 in 3.1 mi WNW 9.2 mph - N/A Rain Rain
4:55 AM 41.0 °F 33.9 °F 41.0 °F 100% 29.98 in 3.7 mi West 12.7 mph - N/A Rain Light Rain
5:00 AM 41 °F - 41 °F 100% 30.01 in 4 mi West 11.2 mph - - Rain Light Rain
5:25 AM 41.0 °F 34.7 °F 41.0 °F 100% 29.98 in 3.1 mi WNW 10.4 mph - N/A Rain Rain
5:55 AM 41.0 °F 35.2 °F 41.0 °F 100% 29.98 in 3.7 mi WNW 9.2 mph - N/A Rain Light Rain
6:25 AM 42.8 °F 37.5 °F 41.0 °F 93% 29.98 in 3.7 mi WNW 9.2 mph - N/A Rain Rain
6:55 AM 42.8 °F 37.0 °F 42.8 °F 100% 29.98 in 3.7 mi WNW 10.4 mph - N/A Rain Light Rain
7:25 AM 42.8 °F 37.0 °F 42.8 °F 100% 29.95 in 3.1 mi WNW 10.4 mph - N/A Rain Rain
7:55 AM 42.8 °F 36.6 °F 42.8 °F 100% 29.95 in 2.5 mi NW 11.5 mph - N/A Rain Light Rain
8:00 AM 42 °F - 42 °F 99% 29.99 in 2 mi NW 11.2 mph - - Rain Light Rain
8:25 AM 42.8 °F 36.6 °F 42.8 °F 100% 29.95 in - NW 11.5 mph - N/A Rain Rain
8:55 AM 42.8 °F 36.2 °F 42.8 °F 100% 29.98 in - NW 12.7 mph - N/A Rain Light Rain
9:25 AM 42.8 °F 36.6 °F 42.8 °F 100% 29.98 in - WNW 11.5 mph - N/A Rain Rain
9:55 AM 42.8 °F 36.2 °F 42.8 °F 100% 29.98 in 1.8 mi NW 12.7 mph - N/A   Light Drizzle
10:25 AM 42.8 °F 35.1 °F 42.8 °F 100% 29.98 in 1.9 mi NW 16.1 mph - N/A   Drizzle
10:55 AM 44.6 °F 38.8 °F 42.8 °F 93% 29.98 in 3.7 mi NW 11.5 mph - N/A   Mostly Cloudy
11:00 AM 44 °F - 43 °F 97% 30.01 in 4 mi NW 11.2 mph - - Rain Light Drizzle
11:25 AM 44.6 °F 38.8 °F 42.8 °F 93% 29.98 in 5.0 mi NW 11.5 mph - N/A   Mostly Cloudy
11:55 AM 46.4 °F 40.7 °F 42.8 °F 87% 29.98 in 5.6 mi NW 12.7 mph - N/A   Mostly Cloudy
12:25 PM 46.4 °F 39.8 °F 42.8 °F 87% 29.98 in 6.2 mi NW 16.1 mph - N/A   Mostly Cloudy
12:55 PM 46.4 °F 40.7 °F 42.8 °F 87% 29.98 in 6.2 mi WNW 12.7 mph - N/A   Mostly Cloudy
1:25 PM 46.4 °F 40.4 °F 41.0 °F 81% 29.98 in 6.2 mi NW 13.8 mph - N/A   Mostly Cloudy
1:55 PM 48.2 °F - 41.0 °F 76% 29.98 in 6.2 mi NW 15.0 mph - N/A   Mostly Cloudy
2:00 PM 48 °F - 41 °F 70% 30.00 in 12 mi NW 15.7 mph - -   Partly Cloudy
2:25 PM 48.2 °F - 41.0 °F 76% 29.98 in 6.2 mi NW 12.7 mph - N/A   Mostly Cloudy
2:55 PM 50.0 °F - 41.0 °F 71% 29.98 in 6.2 mi NW 15.0 mph - N/A   Mostly Cloudy
3:25 PM 51.8 °F - 42.8 °F 71% 29.98 in 6.2 mi NW 15.0 mph - N/A   Mostly Cloudy
3:55 PM 51.8 °F - 39.2 °F 62% 29.98 in 6.2 mi NW 13.8 mph - N/A   Mostly Cloudy
4:25 PM 53.6 °F - 37.4 °F 54% 29.98 in 6.2 mi NW 16.1 mph - N/A   Mostly Cloudy
4:55 PM 53.6 °F - 39.2 °F 58% 29.98 in 6.2 mi NW 15.0 mph - N/A   Mostly Cloudy
5:25 PM 53.6 °F - 37.4 °F 54% 29.98 in 6.2 mi NW 13.8 mph - N/A   Mostly Cloudy
5:55 PM 53.6 °F - 41.0 °F 62% 29.98 in 6.2 mi NW 12.7 mph - N/A   Mostly Cloudy
6:25 PM 53.6 °F - 41.0 °F 62% 29.98 in 6.2 mi NW 13.8 mph - N/A   Mostly Cloudy
6:55 PM 53.6 °F - 42.8 °F 67% 29.95 in 6.2 mi NW 15.0 mph - N/A   Mostly Cloudy
7:25 PM 53.6 °F - 41.0 °F 62% 29.95 in 6.2 mi NW 15.0 mph - N/A   Mostly Cloudy
7:55 PM 51.8 °F - 41.0 °F 67% 29.95 in 6.2 mi NW 10.4 mph - N/A   Mostly Cloudy
8:00 PM 52 °F - 41 °F 56% 29.97 in 12 mi NW 11.2 mph - -   Mostly Cloudy
8:25 PM 51.8 °F - 41.0 °F 67% 29.95 in 6.2 mi NW 12.7 mph - N/A   Mostly Cloudy
8:55 PM 51.8 °F - 41.0 °F 67% 29.95 in 6.2 mi NW 10.4 mph - N/A   Mostly Cloudy
9:25 PM 51.8 °F - 41.0 °F 67% 29.95 in 6.2 mi NW 10.4 mph - N/A   Mostly Cloudy
9:55 PM 50.0 °F - 41.0 °F 71% 29.95 in 6.2 mi WNW 5.8 mph - N/A   Mostly Cloudy
10:25 PM 48.2 °F - 41.0 °F 76% 29.95 in 6.2 mi WNW 6.9 mph - N/A   Mostly Cloudy
10:55 PM 48.2 °F - 39.2 °F 71% 29.95 in 6.2 mi WNW 8.1 mph - N/A   Mostly Cloudy
11:00 PM 48 °F - 40 °F 65% 29.98 in 12 mi WNW 8.9 mph - -   Mostly Cloudy
11:25 PM 48.2 °F - 39.2 °F 71% 29.95 in 6.2 mi WNW 8.1 mph - N/A   Scattered Clouds
11:55 PM 48.2 °F - 39.2 °F 71% 29.95 in 6.2 mi NW 8.1 mph - N/A   Scattered Clouds